Regional Weather Roundup
Issued by NWS Northern Indiana

Home | Current Version | Previous Version | Graphics & Text | Print | Product List | Glossary On
Versions: 1 2 3 4 5 6 7 8 9 10 11 12 13 14 15 16 17 18 19 20 21 22 23 24 25 26 27 28 29 30 31 32 33 34 35 36 37 38 39 40 41 42 43 44 45 46 47 48 49 50
000
ASUS43 KIWX 210300
RWRIWX

KIWX WEATHER ROUNDUP
NATIONAL WEATHER SERVICE NORTHERN INDIANA
1100 PM EDT WED AUG 20 2014

NOTE: "FAIR" INDICATES FEW OR NO CLOUDS BELOW 12,000 FEET WITH NO
SIGNIFICANT WEATHER AND/OR OBSTRUCTIONS TO VISIBILITY.

* THESE STATIONS ARE NOT UNDER NWS QUALITY CONTROL. THEY ALSO MAY NOT
  REPORT WEATHER SUCH AS PRECIPITATION OR FOG.

INZ001>027-210400-
NORTHERN INDIANA

CITY           SKY/WX    TMP DP  RH WIND       PRES   REMARKS
GARY*          CLEAR     77  70  78 W10       29.95R
VALPARAISO     PTCLDY    73  69  87 W8        29.97R
KNOX*          CLEAR     71  67  87 SW7       29.96R
SOUTH BEND     MOCLDY    75  66  73 SW8       29.95R
GOSHEN         PTCLDY    73  67  81 S7        29.95R
MONTICELLO*    PTCLDY    69  67  93 CALM      29.97R
WARSAW*        CLEAR     73  70  88 CALM      29.96R
ANGOLA*        PTCLDY    70  63  78 CALM      29.97R
FORT WAYNE     MOCLDY    71  66  84 SW8       29.98R
PERU/GRISSOM   CLEAR     70  70 100 SW7       29.99R

$$
INZ028>050-210400-
CENTRAL INDIANA

CITY           SKY/WX    TMP DP  RH WIND       PRES   REMARKS
LAFAYETTE      MOCLDY    71  67  87 CALM      29.99R
KOKOMO*        CLEAR     70  52  52 S8        30.00R
MUNCIE*        CLEAR     73  65  75 SW9       30.02R
INDIANAPOLIS   CLOUDY    73  68  84 S6        30.01R

$$
MIZ043>046-050>051-056>058-064>065-071>073-077>080-210400-
SOUTHWEST LOWER MICHIGAN

CITY           SKY/WX    TMP DP  RH WIND       PRES   REMARKS
BATTLE CREEK   MOCLDY    71  65  81 CALM      29.96R
BENTON HARBOR  MOCLDY    69  66  90 CALM      29.93R
COLDWATER*     PTCLDY    69  67  93 SE3       29.96S
HILLSDALE*     PTCLDY    66  66 100 CALM      29.98R
HOLLAND        PTCLDY    72  65  78 NE3       29.94R
GRAND RAPIDS   CLEAR     69  66  90 NE3       29.94S
KALAMAZOO      PTCLDY    71  65  81 CALM      29.95R
STURGIS*       PTCLDY    70  66  88 CALM      29.95S
THREE RIVERS*  FAIR      71  67  89 CALM      29.95R

$$
OHZ001>008-015>018-024>025-210400-
NORTHWEST OHIO

CITY           SKY/WX    TMP DP  RH WIND       PRES   REMARKS
DEFIANCE       CLEAR     71  67  87 CALM      29.97R
FINDLAY        CLEAR     73  66  78 CALM      29.97R
TOLEDO EXPRESS CLEAR     68  66  93 CALM      29.96R
TOLEDO METCALF CLEAR     70  64  81 CALM      29.97R
LIMA           PTCLDY    72  66  81 S6        29.99R

$$
&&



USA.gov is the U.S. government's official web portal to all federal, state and local government web resources and services.